Location: Waco, TX
(31.5480°N, 97.1670°W)
Time: 04:03:17
(UTC-06:00)

ISS - Pass Details

Date: 18 January 2019
Orbit: 404 x 407 km, 51.6° (Epoch: 16 January)

Event Time Altitude Azimuth Distance (km) Brightness Sun altitude
Rises 20:21:10 0° 237° (WSW) 2,310 0.9 -31.8°
Enters shadow 20:23:02 - 242° (WSW) 1,558 -0.1 -32.1°
Reaches altitude 10° 20:23:18 10° 243° (WSW) 1,455 - -32.2°
Maximum altitude 20:26:26 44° 318° (NW) 567 - -32.9°
Drops below altitude 10° 20:29:36 10° 32° (NNE) 1,463 - -33.5°
Sets 20:31:45 0° 39° (NE) 2,326 - -34.0°
